This is the latest recevied weather packets stored in our database for station/object KQ4PPF. If no packets are shown the sender has not sent any weather packets the latest 10 day(s).
| Time | Temp. | Humidity | Pressure | Rain* | Wind** | Luminosity | Snow |
|---|---|---|---|---|---|---|---|
| 1778002740 | 25° C | 44% | 1013.5 hPa | 0 mm | - | 756 W/m² | - |
| 1778002436 | 25° C | 43% | 1013.7 hPa | 0 mm | - | 713 W/m² | - |
| 1778002133 | 25° C | 45% | 1013.9 hPa | 0 mm | - | 636 W/m² | - |
| 1778001831 | 25° C | 44% | 1013.7 hPa | 0 mm | - | 648 W/m² | - |
| 1778001531 | 25° C | 42% | 1014.1 hPa | 0 mm | - | 687 W/m² | - |
| 1778001228 | 24.44° C | 46% | 1013.9 hPa | 0 mm | - | 650 W/m² | - |
| 1778000924 | 24.44° C | 47% | 1014.1 hPa | 0 mm | - | 486 W/m² | - |
| 1778000621 | 25° C | 46% | 1014.3 hPa | 0 mm | - | 525 W/m² | - |
| 1778000316 | 24.44° C | 50% | 1014.2 hPa | 0 mm | - | 616 W/m² | - |
| 1778000012 | 25° C | 48% | 1014.4 hPa | 0 mm | - | 704 W/m² | - |
| 1777999708 | 25° C | 48% | 1014.4 hPa | 0 mm | - | 748 W/m² | - |
| 1777999405 | 24.44° C | 50% | 1014.6 hPa | 0 mm | - | 686 W/m² | - |
| 1777999103 | 23.89° C | 48% | 1014.4 hPa | 0 mm | - | 399 W/m² | - |
| 1777998802 | 23.89° C | 53% | 1014.4 hPa | 0 mm | - | 669 W/m² | - |
| 1777998500 | 23.89° C | 52% | 1014.5 hPa | 0 mm | - | 489 W/m² | - |
| 1777998196 | 23.33° C | 56% | 1014.3 hPa | 0 mm | - | 521 W/m² | - |
| 1777997893 | 23.33° C | 55% | 1014.3 hPa | 0 mm | - | 240 W/m² | - |
| 1777997590 | 22.78° C | 56% | 1014.2 hPa | 0 mm | - | 597 W/m² | - |
| 1777997288 | 23.33° C | 56% | 1014.3 hPa | 0 mm | - | 655 W/m² | - |
| 1777996985 | 22.78° C | 58% | 1014.3 hPa | 0 mm | - | 627 W/m² | - |
| 1777996682 | 22.78° C | 58% | 1014.3 hPa | 0 mm | - | 757 W/m² | - |
| 1777996377 | 22.22° C | 58% | 1014.5 hPa | 0 mm | - | 633 W/m² | - |
| 1777996074 | 23.33° C | 58% | 1014.4 hPa | 0 mm | - | 634 W/m² | - |
| 1777995771 | 22.78° C | 57% | 1014.7 hPa | 0 mm | - | 593 W/m² | - |
| 1777995467 | 22.78° C | 57% | 1014.5 hPa | 0 mm | - | 734 W/m² | - |
* Rain latest hour (hover to see other rain measurements)
** Current wind speed in m/s (hover to see current wind gust speed)